{"data":{"norad_id":46061,"epoch":"2026-05-25T04:54:28.850976Z","epoch_age_seconds":68059,"freshness":"FRESH","line1":"1 46061U 20055AL  26145.20450059 -.00000220  00000+0  46869-5 0  9994","line2":"2 46061  53.1593 118.0099 0001021  81.5116 278.6001 15.31704108320794","mean_motion":15.31704108,"eccentricity":0.0001021,"inclination_deg":53.1593,"raan_deg":118.0099,"arg_perigee_deg":81.5116,"mean_anomaly_deg":278.6001,"bstar":4.6869e-6,"rev_number":32079,"period_min":94.012935819586,"perigee_km":470.02848042785,"apogee_km":471.42701860971,"semimajor_km":6848.8647495188,"source":"CELESTRAK","updated_at":"2026-05-25T13:38:16.462998Z"}}